User: anonymous   Login
Location: Caltech
(34.1382°N, 118.1253°W)
Time: 19:57:15
(UTC-07:00)
Language:

SL-08 R/B - Orbit

View from above orbital plane
View from above orbital plane
View from above satellite
View from above satellite

Ground track
Ground track

The orbit data is extracted from the following two-line orbital elements,

1 27561U 02054C   15110.47474301  .00000855  00000-0  20465-3 0  9998
2 27561 098.1472 247.2219 0047766 096.9344 263.7291 14.55300984657553
Epoch (UTC): 20 April 2015 11:23:37
Eccentricity: 0.0047766
inclination: 98.1472°
perigee height: 674 km
apogee height: 742 km
right ascension of ascending node: 247.2219°
argument of perigee: 96.9344°
revolutions per day: 14.55300984
mean anomaly at epoch: 263.7291°
orbit number at epoch: 65755

The dashed part of the orbit path shows where the satellite is in the earth's shadow,  

DLR